| time (UTC) | temp F | wind direction | speed knots | gust knots | rain 1hr in | rain 24hr in | rain mn in | humidity % | barometer mb |
| 20260504034521 | 57 | 18 | 0.0 | 0.0 | 0.00 | 0.00 | 0.00 | 39 | 903.6 |
| 20260504033016 | 59 | 33 | 0.0 | 0.0 | 0.00 | 0.00 | 0.00 | 37 | 903.2 |
| 20260504031514 | 60 | 34 | 0.0 | 0.0 | 0.00 | 0.00 | 0.00 | 36 | 903.0 |
| 20260504030015 | 60 | 33 | 0.0 | 0.0 | 0.00 | 0.00 | 0.00 | 36 | 902.8 |
| 20260504024508 | 61 | 34 | 0.0 | 0.0 | 0.00 | 0.00 | 0.00 | 34 | 902.7 |
| 20260504023007 | 63 | 46 | 0.0 | 0.0 | 0.00 | 0.00 | 0.00 | 32 | 902.7 |
| 20260504021547 | 64 | 14 | 0.0 | 0.0 | 0.00 | 0.00 | 0.00 | 31 | 902.5 |
| 20260504020039 | 66 | 46 | 0.0 | 0.0 | 0.00 | 0.00 | 0.00 | 30 | 902.5 |
| 20260504014524 | 67 | 32 | 0.0 | 0.0 | 0.00 | 0.00 | 0.00 | 27 | 902.3 |
| 20260504013022 | 69 | 360 | 0.0 | 0.0 | 0.00 | 0.00 | 0.00 | 25 | 902.4 |
| 20260504011517 | 71 | 39 | 0.0 | 0.0 | 0.00 | 0.00 | 0.00 | 22 | 902.2 |
| 20260504010016 | 72 | 339 | 0.0 | 0.0 | 0.00 | 0.00 | 0.00 | 23 | 902.2 |
| 20260504004532 | 72 | 323 | 0.0 | 0.0 | 0.00 | 0.00 | 0.00 | 22 | 902.2 |
| 20260504003017 | 73 | 329 | 0.0 | 0.0 | 0.00 | 0.00 | 0.00 | 21 | 902.2 |
| 20260504001528 | 73 | 335 | 0.0 | 0.0 | 0.00 | 0.00 | 0.00 | 22 | 902.4 |
| 20260504000012 | 73 | 319 | 0.0 | 0.0 | 0.00 | 0.00 | 0.00 | 22 | 902.4 |
| 20260503234553 | 73 | 310 | 0.0 | 0.0 | 0.00 | 0.00 | 0.00 | 22 | 902.5 |
| 20260503233053 | 73 | 312 | 0.0 | 0.0 | 0.00 | 0.00 | 0.00 | 21 | 902.6 |
| 20260503231539 | 74 | 323 | 0.0 | 0.0 | 0.00 | 0.00 | 0.00 | 20 | 902.6 |
| 20260503230055 | 73 | 297 | 0.0 | 0.0 | 0.00 | 0.00 | 0.00 | 22 | 902.5 |
| 20260503224536 | 73 | 281 | 0.0 | 0.0 | 0.00 | 0.00 | 0.00 | 21 | 902.7 |
| 20260503223035 | 73 | 326 | 0.0 | 0.0 | 0.00 | 0.00 | 0.00 | 21 | 902.9 |
| 20260503221535 | 73 | 316 | 0.0 | 0.0 | 0.00 | 0.00 | 0.00 | 22 | 903.0 |
| 20260503220036 | 73 | 322 | 0.0 | 0.0 | 0.00 | 0.00 | 0.00 | 22 | 903.2 |
| 20260503214542 | 73 | 288 | 0.0 | 0.0 | 0.00 | 0.00 | 0.00 | 21 | 903.4 |
| 20260503213032 | 72 | 295 | 0.0 | 0.0 | 0.00 | 0.00 | 0.00 | 21 | 903.6 |
| 20260503211517 | 72 | 338 | 0.0 | 0.0 | 0.00 | 0.00 | 0.00 | 22 | 903.7 |
| 20260503210015 | 73 | 317 | 0.0 | 0.0 | 0.00 | 0.00 | 0.00 | 21 | 903.9 |
| 20260503204514 | 72 | 312 | 0.0 | 0.0 | 0.00 | 0.00 | 0.00 | 22 | 904.1 |
| 20260503203009 | 72 | 321 | 0.0 | 0.0 | 0.00 | 0.00 | 0.00 | 22 | 904.3 |
| 20260503201504 | 71 | 316 | 0.0 | 0.0 | 0.00 | 0.00 | 0.00 | 22 | 904.3 |
| 20260503200002 | 70 | 274 | 0.0 | 0.0 | 0.00 | 0.00 | 0.00 | 22 | 904.5 |
| 20260503194624 | 71 | 319 | 0.0 | 0.0 | 0.00 | 0.00 | 0.00 | 23 | 904.7 |
| 20260503193058 | 71 | 271 | 0.0 | 0.0 | 0.00 | 0.00 | 0.00 | 23 | 904.9 |
| 20260503191537 | 70 | 297 | 0.0 | 0.0 | 0.00 | 0.00 | 0.00 | 23 | 905.2 |
| 20260503190041 | 70 | 333 | 0.0 | 0.0 | 0.00 | 0.00 | 0.00 | 24 | 905.4 |
| 20260503184518 | 69 | 280 | 0.0 | 0.0 | 0.00 | 0.00 | 0.00 | 25 | 905.6 |
| 20260503183014 | 69 | 272 | 0.0 | 0.0 | 0.00 | 0.00 | 0.00 | 25 | 905.8 |
| 20260503181609 | 69 | 284 | 0.0 | 0.0 | 0.00 | 0.00 | 0.00 | 25 | 905.9 |
| 20260503180059 | 68 | 321 | 0.0 | 0.0 | 0.00 | 0.00 | 0.00 | 24 | 906.1 |
| 20260503174611 | 68 | 295 | 0.0 | 0.0 | 0.00 | 0.00 | 0.00 | 25 | 906.2 |
| 20260503173058 | 68 | 321 | 0.0 | 0.0 | 0.00 | 0.00 | 0.00 | 24 | 906.4 |
| 20260503171555 | 67 | 316 | 0.0 | 0.0 | 0.00 | 0.00 | 0.00 | 25 | 906.4 |
| 20260503170105 | 66 | 316 | 0.0 | 0.0 | 0.00 | 0.00 | 0.00 | 26 | 906.5 |
| 20260503081547 | 35 | 321 | 0.0 | 0.0 | 0.00 | 0.00 | 0.00 | 77 | 909.2 |
| 20260503071541 | 37 | 321 | 0.0 | 0.0 | 0.00 | 0.00 | 0.00 | 77 | 909.6 |
| 20260503054545 | 45 | 39 | 0.0 | 0.0 | 0.00 | 0.00 | 0.00 | 64 | 909.9 |
| 20260503053045 | 45 | 242 | 0.0 | 0.0 | 0.00 | 0.00 | 0.00 | 66 | 910.0 |
| 20260503051544 | 42 | 274 | 0.0 | 0.0 | 0.00 | 0.00 | 0.00 | 73 | 910.0 |
| 20260503050041 | 44 | 331 | 0.0 | 0.0 | 0.00 | 0.00 | 0.00 | 65 | 909.8 |
| 20260503044557 | 47 | 32 | 0.0 | 0.0 | 0.00 | 0.00 | 0.00 | 60 | 909.8 |
| 20260503043035 | 49 | 317 | 0.0 | 0.0 | 0.00 | 0.00 | 0.00 | 55 | 909.8 |
| 20260503041536 | 49 | 170 | 0.0 | 0.0 | 0.00 | 0.00 | 0.00 | 54 | 909.7 |
| 20260503040023 | 51 | 169 | 0.0 | 0.0 | 0.00 | 0.00 | 0.00 | 51 | 909.8 |